Location: *
(43.9905°S, 176.4941°W)
Time: 15:20:27
(UTC+00:00)

Cosmos 372 Rocket - Pass Details

Date: 08 December 2019
Orbit: 738 x 768 km, 74.1° (Epoch: 27 January)

Event Time Altitude Azimuth Distance (km) Brightness Sun altitude
Rises 11:22:16 0° 203° (SSW) 3,272 8.5 -23.2°
Reaches altitude 10° 11:24:40 10° 205° (SSW) 2,335 7.4 -23.2°
Maximum altitude 11:29:57 69° 287° (WNW) 823 4.0 -23.3°
Enters shadow 11:30:45 59° 337° (NNW) 885 4.0 -23.3°
